[[{"header":{"parameterUnit":"m.s-1","parameterCategory":1,"la1":30.2991,"la2":30.254,"lo1":-89.0895,"lo2":-89.0444,"dy":0.0017,"dx":0.0017,"nx":28,"ny":28,"refTime":"2024-08-11T15:00:00:Z","depth":0,"parameterNumber":2,"parameterNumberName":"U-component_of_WINDS"},"data":[0,0,0,0,0,0,0,0,0,0,0,0,0,0,0,0,0,0,0,0,0,0,0,0,0,0,0,0,0,0,0,0,0,0,0,0,0,0,0,0,0,0,0,0,0,0,0,0,0,0,0,0,0,0,0,0,0,0,3.4645,3.4646,0,3.4746,3.4748,3.4749,3.4686,3.4683,3.468,3.4677,3.4783,3.4788,3.4794,0,0,0,0,0,0,0,0,0,0,0,0,0,3.4397,3.4402,3.4645,3.4646,3.4647,3.4746,3.4748,3.4749,3.4687,3.4683,3.4679,3.4676,3.4781,3.4788,3.4794,0,0,0,0,0,0,0,0,0,0,0,0,0,3.4502,3.4403,3.4645,3.4628,3.4628,3.4746,3.4748,3.4749,3.4687,3.4683,3.4678,3.4674,3.4779,3.4787,3.4795,3.4936,0,0,3.4821,3.4824,0,0,0,0,0,0,0,0,3.4496,3.4511,3.4629,3.4629,3.4629,3.4699,3.4699,3.4812,3.4688,3.4665,3.4677,3.4672,3.4759,3.4768,3.4797,3.4941,3.4946,3.4822,3.4827,3.483,3.4833,0,0,0,0,0,0,0,3.4489,3.4507,3.4685,3.4631,3.4631,3.4616,3.4626,3.472,3.4736,3.4666,3.4662,3.4675,3.4758,3.4789,3.4799,3.4947,3.4821,3.4829,3.4834,3.4837,3.5208,3.5213,0,0,0,0,0,0,3.4483,3.4501,3.4682,3.4688,3.455,3.4624,3.4635,3.4681,3.4734,3.4738,3.4679,3.4672,3.4777,3.479,3.4803,3.4969,3.483,3.4838,3.4843,3.5204,3.521,3.5215,0,0,0,0,0,0,3.4478,3.45,3.4678,3.4593,3.4615,3.4633,3.4685,3.4685,3.4717,3.4743,3.4746,3.4708,3.4774,3.4791,3.4903,3.4972,3.4842,3.4849,3.5198,3.5205,3.5212,3.5303,0,0,0,0,0,0,3.4471,3.4498,3.4552,3.4595,3.462,3.4776,3.4689,3.4691,3.4731,3.4723,3.4772,3.4775,3.4772,3.489,3.4911,3.4981,3.4856,3.5192,3.5201,3.521,3.5294,3.5313,3.5329,0,0,0,0,0,3.4462,3.4575,3.4555,3.4577,3.4687,3.478,3.4794,3.4788,3.4737,3.4791,3.4808,3.4774,3.4961,3.4902,3.4925,3.4998,3.5187,3.5199,3.5209,3.5286,3.5309,3.5328,0,0,0,0,0,0,3.454,3.458,3.4559,3.4688,3.4731,3.4769,3.4837,3.4812,3.4871,3.4861,3.485,3.4862,3.4978,3.5,3.4933,3.5136,3.5066,3.5082,3.5117,3.5139,3.5156,3.5148,3.4863,0,0,0,0,0,3.4573,3.4645,3.4676,3.4787,3.4809,3.482,3.486,3.4851,3.4895,3.4913,3.4938,3.4983,3.5051,3.5097,3.5161,3.5297,3.5306,3.5359,3.5376,3.539,3.5404,3.5474,3.5498,3.5251,3.525,3.525,0,0,3.464,3.4671,3.4717,3.4803,3.4835,3.4909,3.4836,3.4918,3.4973,3.4926,3.5032,3.5052,3.5101,3.5224,3.528,3.5246,3.5474,3.5404,3.5415,3.5421,3.5488,3.5511,3.5532,3.5258,3.5257,3.5255,0,0,3.48,3.4831,3.4926,3.4959,3.5008,3.5014,3.5037,3.5079,3.509,3.5196,3.5162,3.5227,3.5346,3.5381,3.5415,3.5587,3.5557,3.5608,3.5698,3.5767,3.5786,3.5804,3.5863,3.5884,3.5622,3.5622,3.5622,0,3.4877,3.4988,3.4978,3.5062,3.51,3.5061,3.5156,3.5189,3.5257,3.5284,3.5245,3.5392,3.5422,3.5552,3.5594,3.5623,3.5648,3.5602,3.5784,3.5802,3.5817,3.5873,3.5896,3.5628,3.5627,3.5627,3.5626,0,3.5079,3.5156,3.5227,3.5292,3.5338,3.5428,3.5431,3.548,3.5466,3.5476,3.5584,3.5619,3.5688,3.5719,3.5708,3.5847,3.5824,3.5785,3.5715,3.5847,3.5899,3.5921,3.5636,3.5634,3.5632,3.5631,0,0,3.5291,3.5348,3.5374,3.5402,3.5453,3.5512,3.56,3.5667,3.5707,3.5756,3.5827,3.5928,3.5891,3.593,3.5922,3.5983,3.6114,3.5936,3.5937,3.5966,3.6267,3.6294,3.6319,3.6095,3.6099,3.6102,3.6261,0,3.5452,3.5603,3.5596,3.5738,3.5807,3.577,3.5846,3.5885,3.5896,3.5957,3.597,3.604,3.5988,3.601,3.6069,3.6085,3.6173,3.6074,3.616,3.6163,3.6147,3.6347,3.6376,3.6525,3.6282,3.6286,3.6288,0,3.566,3.5713,3.5861,3.5899,3.5928,3.5996,3.6056,3.6115,3.6158,3.6162,3.6204,3.6186,3.6273,3.6202,3.6321,3.6253,3.6288,3.6302,3.6307,3.6313,3.6232,3.6356,3.6573,3.6594,3.6321,3.6318,3.6316,0,3.5796,3.5906,3.6007,3.6033,3.6081,3.6129,3.6151,3.619,3.623,3.6283,3.6308,3.6371,3.6405,3.6454,3.6453,3.6401,3.6573,3.6502,3.6577,3.6578,3.6614,3.6611,3.6837,3.6641,3.664,3.664,3.6639,0,3.5976,3.6067,3.6069,3.6131,3.6232,3.6223,3.6323,3.6341,3.6375,3.644,3.6412,3.6474,3.6469,3.6531,3.6531,3.6629,3.6645,3.665,3.6648,3.6651,3.665,3.6672,3.6661,3.6646,3.6644,3.6643,3.6642,0,3.6144,3.615,3.6258,3.6293,3.6304,3.6377,3.6407,3.6466,3.6475,3.6557,3.6576,3.6589,3.6661,3.6665,3.6748,3.6747,3.6865,3.6853,3.685,3.6847,3.6921,3.6913,3.7167,3.7199,3.6985,3.6987,3.6988,0,3.6257,3.6326,3.6369,3.6409,3.6434,3.6501,3.6541,3.6535,3.6578,3.6631,3.6683,3.6752,3.6806,3.6921,3.6939,3.7001,3.699,3.7074,3.6999,3.6998,3.6988,3.6983,3.6989,3.7088,3.7091,3.7093,3.7094,0,3.6456,3.6455,3.6514,3.6573,3.6622,3.6669,3.6712,3.6747,3.6746,3.6796,3.6868,3.691,3.6993,3.7061,3.7121,3.7144,3.7119,3.7118,3.7138,3.7141,3.7135,3.7136,3.6887,3.7112,3.711,3.7109,3.7108,3.7107,3.6599,3.6657,3.6695,3.6761,3.6793,3.6834,3.689,3.6905,3.6965,3.7031,3.7025,3.7104,3.7143,3.7222,3.7249,3.7311,3.7282,3.7312,3.7319,3.7326,3.7333,3.7127,3.7322,3.7322,3.7321,3.7321,3.7321,0,3.6794,3.6816,3.6877,3.6938,3.6989,3.6961,3.7007,3.7052,3.7122,3.7161,3.7214,3.7295,3.736,3.7383,3.7446,3.749,3.748,3.7507,3.7503,3.7508,3.7357,3.7331,3.7514,3.7514,3.7514,3.7514,3.7514,3.7514,3.6901,3.6998,3.7001,3.7113,3.7135,3.7211,3.724,3.7277,3.7307,3.7399,3.7453,3.7466,3.7498,3.7563,3.7621,3.7626,3.7649,3.768,3.768,3.7538,3.7519,3.75,3.7476,3.7686,3.7686,3.7826,3.7827,3.7828]},{"header":{"parameterUnit":"m.s-1","parameterCategory":1,"la1":30.2991,"la2":30.254,"lo1":-89.0895,"lo2":-89.0444,"dy":0.0017,"dx":0.0017,"nx":28,"ny":28,"refTime":"2024-08-11T15:00:00:Z","depth":0,"parameterNumber":3,"parameterNumberName":"V-component_of_WINDS"},"data":[0,0,0,0,0,0,0,0,0,0,0,0,0,0,0,0,0,0,0,0,0,0,0,0,0,0,0,0,0,0,0,0,0,0,0,0,0,0,0,0,0,0,0,0,0,0,0,0,0,0,0,0,0,0,0,0,0,0,4.205,4.205,0,4.2072,4.2072,4.2072,4.2004,4.2002,4.2,4.1998,4.2017,4.2019,4.2022,0,0,0,0,0,0,0,0,0,0,0,0,0,4.1944,4.1947,4.205,4.205,4.205,4.2072,4.2072,4.2072,4.2004,4.2002,4.1999,4.1997,4.2016,4.2019,4.2022,0,0,0,0,0,0,0,0,0,0,0,0,0,4.198,4.1947,4.2049,4.2019,4.2016,4.2072,4.2072,4.2072,4.2005,4.2002,4.1999,4.1996,4.2015,4.2019,4.2022,4.2107,0,0,4.2034,4.2035,0,0,0,0,0,0,0,0,4.1979,4.1984,4.2023,4.2021,4.2018,4.2032,4.2042,4.2084,4.2006,4.2009,4.1998,4.1994,4.2024,4.2027,4.2038,4.2108,4.2109,4.2034,4.2036,4.2038,4.2039,0,0,0,0,0,0,0,4.1976,4.1983,4.2058,4.2024,4.2021,4.2003,4.2004,4.2049,4.2034,4.2009,4.2004,4.2007,4.2022,4.2034,4.2038,4.2109,4.2034,4.2037,4.2039,4.2041,4.2248,4.2251,0,0,0,0,0,0,4.1978,4.1981,4.2057,4.2059,4.1991,4.2007,4.2009,4.2031,4.2033,4.203,4.201,4.2004,4.203,4.2034,4.2038,4.2136,4.2038,4.2041,4.2043,4.2245,4.2249,4.2252,0,0,0,0,0,0,4.1976,4.1986,4.2056,4.2019,4.2026,4.2012,4.2037,4.2033,4.2045,4.2034,4.2031,4.2026,4.2027,4.2033,4.209,4.2136,4.2043,4.2046,4.2241,4.2246,4.2251,4.2333,0,0,0,0,0,0,4.1973,4.1985,4.2018,4.202,4.2029,4.211,4.204,4.2035,4.2052,4.2044,4.2048,4.2045,4.2025,4.2085,4.2094,4.2139,4.2049,4.2237,4.2243,4.2249,4.2326,4.234,4.2353,0,0,0,0,0,4.197,4.204,4.202,4.203,4.207,4.2113,4.2117,4.2094,4.2056,4.2088,4.2081,4.2045,4.213,4.2092,4.2101,4.2148,4.2234,4.2241,4.2248,4.2321,4.2338,4.2352,0,0,0,0,0,0,4.2043,4.204,4.2018,4.2091,4.2103,4.2101,4.2141,4.2113,4.2135,4.2127,4.2096,4.2097,4.2159,4.2159,4.2117,4.2229,4.2175,4.2185,4.2227,4.2243,4.2256,4.2253,4.2052,0,0,0,0,0,4.2068,4.2104,4.2099,4.2164,4.2171,4.2156,4.2173,4.2154,4.2164,4.2168,4.2166,4.2176,4.2204,4.2224,4.225,4.2327,4.2325,4.2363,4.2376,4.2387,4.2395,4.2434,4.2451,4.2277,4.2277,4.2277,0,0,4.2119,4.2122,4.2147,4.2179,4.2186,4.2222,4.216,4.2201,4.2227,4.2174,4.2228,4.2227,4.2236,4.2303,4.2332,4.2305,4.2443,4.2397,4.2405,4.2408,4.2444,4.246,4.2475,4.2282,4.2281,4.228,0,0,4.2231,4.2238,4.2292,4.23,4.2311,4.23,4.2314,4.2316,4.2313,4.2367,4.2327,4.2358,4.2408,4.2416,4.2427,4.2541,4.2509,4.2551,4.2618,4.2657,4.267,4.2682,4.2721,4.2736,4.2559,4.2559,4.256,0,4.2293,4.2347,4.2323,4.2367,4.2382,4.2337,4.239,4.2399,4.2418,4.2428,4.2398,4.2459,4.2463,4.253,4.2558,4.2569,4.2581,4.2549,4.2671,4.2682,4.2693,4.273,4.2745,4.2564,4.2564,4.2563,4.2563,0,4.2422,4.246,4.2503,4.2523,4.2542,4.2591,4.2573,4.2595,4.2575,4.2567,4.2621,4.2624,4.2648,4.2663,4.2644,4.2728,4.271,4.2676,4.262,4.2715,4.2749,4.2763,4.2571,4.257,4.2568,4.2567,0,0,4.2579,4.2586,4.2601,4.2609,4.2619,4.2647,4.2693,4.2719,4.2738,4.2752,4.2789,4.2833,4.2801,4.2813,4.2793,4.2828,4.2916,4.2788,4.2788,4.281,4.3007,4.3032,4.3049,4.2895,4.2898,4.29,4.3006,0,4.2688,4.2768,4.2747,4.2826,4.286,4.2818,4.2857,4.2867,4.286,4.2887,4.288,4.2911,4.2867,4.2874,4.2906,4.2899,4.2955,4.2891,4.2927,4.2929,4.2924,4.3067,4.3093,4.3192,4.3019,4.3021,4.3023,0,4.2825,4.2845,4.2928,4.2931,4.2944,4.2981,4.3001,4.3029,4.3038,4.303,4.3045,4.3018,4.3062,4.3008,4.3067,4.3024,4.3038,4.3037,4.304,4.3041,4.298,4.3069,4.3224,4.3238,4.3044,4.3042,4.3041,0,4.2928,4.2977,4.3032,4.3041,4.3046,4.3072,4.3075,4.3082,4.3098,4.3116,4.3126,4.3149,4.3161,4.3179,4.3159,4.3122,4.3221,4.3165,4.3214,4.3215,4.3235,4.3234,4.3392,4.3248,4.3248,4.3247,4.3247,0,4.3051,4.3102,4.3079,4.3113,4.3169,4.3144,4.32,4.3198,4.3204,4.3236,4.3201,4.3231,4.3204,4.3231,4.3216,4.3266,4.3273,4.3267,4.3262,4.3269,4.3269,4.3276,4.3268,4.3251,4.325,4.325,4.3249,0,4.3175,4.3162,4.3219,4.322,4.3221,4.3262,4.3262,4.3292,4.3284,4.3324,4.3332,4.3318,4.3349,4.3331,4.3362,4.3352,4.3417,4.3403,4.3414,4.341,4.3459,4.3454,4.3625,4.3645,4.349,4.3492,4.3493,0,4.3253,4.3292,4.3297,4.3316,4.3322,4.3353,4.3369,4.3347,4.3365,4.3378,4.3407,4.3435,4.3455,4.3506,4.3498,4.3521,4.3506,4.3565,4.351,4.3515,4.3505,4.3502,4.3505,4.3575,4.3577,4.3579,4.358,0,4.3392,4.3383,4.3409,4.3433,4.3454,4.3471,4.3485,4.3503,4.348,4.3502,4.3533,4.355,4.3582,4.3609,4.3629,4.363,4.3601,4.3598,4.361,4.3617,4.362,4.3617,4.3442,4.3593,4.3592,4.3591,4.359,4.359,4.3494,4.3526,4.3534,4.3564,4.3572,4.3586,4.3615,4.361,4.3636,4.366,4.3646,4.3682,4.3689,4.3713,4.3718,4.3745,4.3722,4.374,4.3744,4.3748,4.3754,4.3618,4.3749,4.3749,4.3748,4.3748,4.3748,0,4.3629,4.3632,4.366,4.3681,4.3704,4.3676,4.369,4.3711,4.3744,4.3754,4.3775,4.381,4.3836,4.3831,4.3854,4.3877,4.3864,4.3884,4.3881,4.3881,4.3775,4.3761,4.3894,4.3894,4.3894,4.3894,4.3894,4.3894,4.3701,4.3754,4.3746,4.3802,4.3804,4.384,4.385,4.3863,4.387,4.3912,4.3934,4.393,4.3934,4.3957,4.398,4.3977,4.3986,4.4011,4.4003,4.3904,4.3889,4.3875,4.3862,4.4014,4.4014,4.4107,4.4108,4.4109]}]]